Oxford, NC

11:42 PM EDT on September 17, 2019 (GMT -0400)
Henderson-Oxford

Weather History for KHNZ - July, 2019

Change the Weather History Date:

Tuesday, July 9, 2019

  Actual Average (KTDF) Record (KTDF)
Temperature  
Mean Temperature 75 °F -  
Max Temperature 82 °F 89 °F 103 °F (1977)
Min Temperature 67 °F 64 °F 51 °F (2018)
Cooling Degree Days 10    
Growing Degree Days 25 (Base 50)    
Moisture  
Dew Point 65 °F    
Average Humidity 68    
Maximum Humidity 95    
Minimum Humidity 55    
Precipitation  
Precipitation 0.00 in - - ()
Sea Level Pressure  
Sea Level Pressure 30.08 in    
Wind  
Wind Speed 1 mph (ENE)    
Max Wind Speed 7 mph    
Max Gust Speed -    
Visibility 10 miles    
Events      
Averages and records for this station are not official NWS values.
T = Trace of Precipitation, MM = Missing Value Source: NWS Daily Summary

Daily Weather History Graph

Daily Weather History Graph

Search for Another Location

Airport or City:

Astronomy

Jul. 09, 2019 Rise Set
Actual Time 6:04 AM EDT 8:34 PM EDT
Civil Twilight 5:34 AM EDT 9:04 PM EDT
Nautical Twilight 4:56 AM EDT 9:41 PM EDT
Astronomical Twilight 4:15 AM EDT 10:22 PM EDT
Moon 1:39 PM EDT (7/9) 1:02 AM EDT (7/9)
Length of Visible Light 15h 30m
Length of Day
14h 30m
First Quarter, 52% of the Moon is Illuminated
Jul 9
First Quarter
Jul 16
Full
Jul 24
Last Quarter
Jul 31
New
Aug 7
First Quarter

Hourly Weather History & Observations

Time (EDT) Temp. Heat Index Dew Point Humidity Pressure Visibility Wind Dir Wind Speed Gust Speed Precip Events Conditions
11:15 AM 75.0 °F - 63.9 °F 68% 30.10 in 10.0 mi NNE 3.5 mph - N/A   Mostly Cloudy
11:35 AM 76.1 °F - 64.8 °F 68% 30.10 in 10.0 mi Calm Calm - N/A   Scattered Clouds
11:55 AM 76.6 °F - 64.4 °F 66% 30.10 in 10.0 mi Calm Calm - N/A   Clear
12:15 PM 77.9 °F - 64.9 °F 64% 30.09 in 10.0 mi ENE 6.9 mph - N/A   Clear
12:35 PM 78.8 °F - 64.0 °F 60% 30.09 in 10.0 mi Calm Calm - N/A   Clear
12:55 PM 78.4 °F - 64.2 °F 62% 30.09 in 10.0 mi NE 3.5 mph - N/A   Scattered Clouds
1:15 PM 78.6 °F - 64.6 °F 62% 30.09 in 10.0 mi Calm Calm - N/A   Overcast
1:35 PM 78.8 °F - 64.8 °F 62% 30.09 in 10.0 mi Calm Calm - N/A   Overcast
1:55 PM 79.2 °F - 64.6 °F 61% 30.09 in 10.0 mi Calm Calm - N/A   Mostly Cloudy
2:15 PM 79.3 °F - 64.2 °F 60% 30.08 in 10.0 mi Calm Calm - N/A   Mostly Cloudy
2:35 PM 80.4 °F 82.2 °F 64.8 °F 59% 30.08 in 10.0 mi Calm Calm - N/A   Mostly Cloudy
2:55 PM 81.0 °F 82.7 °F 64.9 °F 58% 30.07 in 10.0 mi Calm Calm - N/A   Mostly Cloudy
3:15 PM 80.4 °F 82.2 °F 65.1 °F 59% 30.07 in 10.0 mi Calm Calm - N/A   Mostly Cloudy
3:35 PM 80.4 °F 82.3 °F 65.3 °F 60% 30.06 in 10.0 mi Calm Calm - N/A   Mostly Cloudy
3:55 PM 82.0 °F 83.9 °F 65.7 °F 57% 30.06 in 10.0 mi East 5.8 mph - N/A   Mostly Cloudy
4:15 PM 81.0 °F 83.0 °F 66.0 °F 60% 30.06 in 10.0 mi NE 4.6 mph - N/A   Mostly Cloudy
4:35 PM 81.0 °F 83.2 °F 66.2 °F 61% 30.05 in 10.0 mi East 4.6 mph - N/A   Mostly Cloudy
4:55 PM 81.0 °F 83.0 °F 66.0 °F 60% 30.06 in 10.0 mi ENE 3.5 mph - N/A   Mostly Cloudy
5:15 PM 81.3 °F 83.5 °F 66.2 °F 60% 30.05 in 10.0 mi Calm Calm - N/A   Mostly Cloudy
5:35 PM 79.7 °F - 65.7 °F 62% 30.05 in 10.0 mi Calm Calm - N/A   Mostly Cloudy
5:55 PM 81.3 °F 83.3 °F 65.8 °F 59% 30.06 in 10.0 mi Calm Calm - N/A   Mostly Cloudy
6:15 PM 80.6 °F 82.4 °F 64.9 °F 59% 30.06 in 10.0 mi Calm Calm - N/A   Scattered Clouds
6:35 PM 81.1 °F 83.1 °F 65.5 °F 59% 30.05 in 10.0 mi Calm Calm - N/A   Scattered Clouds
7:15 PM 80.6 °F 81.9 °F 63.3 °F 55% 30.06 in 10.0 mi Calm Calm - N/A   Mostly Cloudy
7:35 PM 79.7 °F - 63.7 °F 58% 30.06 in 10.0 mi Calm Calm - N/A   Scattered Clouds
7:55 PM 78.8 °F - 66.2 °F 65% 30.06 in 10.0 mi Calm Calm - N/A   Scattered Clouds
8:15 PM 77.5 °F - 63.7 °F 62% 30.07 in 10.0 mi Calm Calm - N/A   Clear
8:35 PM 74.8 °F - 65.5 °F 73% 30.07 in 7.0 mi Calm Calm - N/A   Clear
8:55 PM 74.3 °F - 65.1 °F 73% 30.08 in 10.0 mi Calm Calm - N/A   Clear
9:15 PM 72.5 °F - 64.9 °F 77% 30.09 in 10.0 mi Calm Calm - N/A   Clear
9:35 PM 72.0 °F - 65.5 °F 80% 30.09 in 10.0 mi Calm Calm - N/A   Clear
9:55 PM 69.8 °F - 67.8 °F 93% 30.09 in 10.0 mi Calm Calm - N/A   Clear
10:15 PM 70.9 °F - 65.8 °F 84% 30.09 in 10.0 mi Calm Calm - N/A   Scattered Clouds
10:35 PM 69.6 °F - 65.5 °F 87% 30.09 in 10.0 mi Calm Calm - N/A   Scattered Clouds
10:55 PM 69.3 °F - 66.2 °F 90% 30.09 in 10.0 mi Calm Calm - N/A   Clear
11:15 PM 68.4 °F - 65.3 °F 90% 30.08 in 10.0 mi Calm Calm - N/A   Clear
11:35 PM 68.5 °F - 66.2 °F 92% 30.08 in 10.0 mi Calm Calm - N/A   Clear
11:55 PM 67.6 °F - 66.2 °F 95% 30.08 in 10.0 mi Calm Calm - N/A   Clear